Content
SEND FEEDBACK

Daily
Averages
Monthly
Summary
United States of America

ST. LOUIS, MISSOURI


Home > North America > United States > Missouri
Elevation: 535 feet     Latitude: 38 45N     Longitude: 090 22W

WEATHER
 
SELECT A DAY
Number of Records: 196,395;   Date Range: 1/1/95 - 7/29/14
 
SHARE

PRINT THIS DATA

[ ← Previous Day ]
WEATHER ALMANAC - MARCH 21, 2014
[ Next Day → ]
[ °C ]   °F
Weather ElementAverageHighLow
Temperature61.6 °F75.9 °F (3:54 pm)51.1 °F (3:54 am)
Dewpoint27.9 °F35.1 °F (7:54 pm)21 °F (2:54 pm)
Humidity30.2 %42 % (10:54 pm)13 % (2:54 pm)
Barometer29.86 in29.99 in (11:54 pm)29.72 in (5:54 pm)
Wind Speed10.8 mph18.4 mph (3:54 pm)
Wind Gust27.6 mph (8:54 pm)
Weather ElementAverage
Visibility10 mi
Wind DirectionWSW (241.7 °)

Weather ElementTotal
Precipitation---
Heating Degree Days1.5 (Base 65)
Growing Degree Days13.5 (Base 50)
Averaged from 23 records on March 21, 2014
WEATHER CONDITIONS BREAKOUT
WIND DIRECTION BREAKOUT
WEATHER BY HOUR - MARCH 21, 2014
[ °C ]   °F
Local TimeTemperatureDewpointHumidityBarometerVisibilityWind DirectionWind SpeedGust SpeedPrecipitationEventsConditions
1:54 AM53.1 °F30.0 °F41 %29.91 in10.0 miSSW (210°)10.4 mphClear
2:54 AM52.0 °F28.0 °F40 %29.90 in10.0 miSSW (210°)11.5 mphClear
3:54 AM51.1 °F27.0 °F39 %29.89 in10.0 miSW (220°)6.9 mphClear
4:54 AM51.1 °F27.0 °F39 %29.89 in10.0 miSW (220°)10.4 mphClear
5:54 AM51.1 °F27.0 °F39 %29.88 in10.0 miSW (220°)8.1 mphClear
6:54 AM51.1 °F27.0 °F39 %29.90 in10.0 miSW (230°)6.9 mphMostly Cloudy
7:54 AM52.0 °F27.0 °F38 %29.91 in10.0 miSW (220°)5.8 mphMostly Cloudy
8:54 AM55.0 °F27.0 °F34 %29.91 in10.0 miSW (220°)5.8 mphOvercast
9:54 AM61.0 °F27.0 °F27 %29.89 in10.0 miSW (220°)12.7 mphMostly Cloudy
10:54 AM64.9 °F28.0 °F25 %29.88 in10.0 miSSW (200°)9.2 mphMostly Cloudy
11:54 AM71.1 °F26.1 °F19 %29.86 in10.0 miWSW (240°)12.7 mphMostly Cloudy
12:54 PM73.0 °F25.0 °F17 %29.81 in10.0 miSSW (210°)10.4 mph24.2 mphMostly Cloudy
1:54 PM72.0 °F23.0 °F16 %29.78 in10.0 miSouth (190°)9.2 mph24.2 mphMostly Cloudy
2:54 PM75.0 °F21.0 °F13 %29.74 in10.0 miSW (220°)13.8 mph25.3 mphMostly Cloudy
3:54 PM75.9 °F21.9 °F13 %29.73 in10.0 miSouth (190°)18.4 mph25.3 mphMostly Cloudy
4:54 PM75.0 °F23.0 °F14 %29.73 in10.0 miSSW (210°)17.3 mph23.0 mphMostly Cloudy
5:54 PM73.0 °F26.1 °F17 %29.72 in10.0 miSW (230°)16.1 mph24.2 mphMostly Cloudy
6:54 PM66.9 °F34.0 °F30 %29.78 in10.0 miNW (310°)12.7 mph20.7 mphMostly Cloudy
7:54 PM63.0 °F35.1 °F35 %29.83 in10.0 miNW (310°)8.1 mph23.0 mphMostly Cloudy
8:54 PM61.0 °F34.0 °F36 %29.88 in10.0 miNW (320°)15.0 mph27.6 mphOvercast
9:54 PM57.9 °F34.0 °F41 %29.91 in10.0 miNW (320°)10.4 mph19.6 mphMostly Cloudy
10:54 PM55.9 °F33.1 °F42 %29.95 in10.0 miWNW (300°)6.9 mphClear
11:54 PM55.0 °F30.9 °F40 %29.99 in10.0 miNNW (340°)10.4 mph21.9 mphPartly Cloudy
Hourly data recorded from KSUS, located miles away from St. Louis, Missouri







STORIES FROM OUR PARTNERS